DW3348 Humptulips WA US current weather conditions

sailwx.info

Wind from 197 at 2 knots gusting 6

Air temperature 7.8° C
Dewpoint 7.5° C

Last reported at 2020-Jan-25 13:02 UTC.
Time now 2020-Jan-25 13:48 UTC

Location: N 47°11' W 123°57'.
View on Google Maps.

See reports from other nearby stations

  
Tides and Currents Weather Stations Pressure Air Temp Water Temp Dewpoint Dewpoint Depression Visibility Wind Speed Wind Dir Waves Ship Positions
date/time (UTC)wind fromknots sea level pressurealtimeterstation pressurevisibilityair tempwater tempwave heightnotes
2020-Jan-25 13:02 197 2 gusting 6 7.8
2020-Jan-25 12:53 201 2 gusting 8 7.8
2020-Jan-25 12:44 194 2 gusting 8 7.8
2020-Jan-25 12:35 190 1 gusting 5 7.8
2020-Jan-25 12:26 195 1 gusting 5 7.8
2020-Jan-25 12:17 190 2 gusting 5 7.8
2020-Jan-25 12:08 206 1 gusting 5 7.8
2020-Jan-25 11:59 202 2 gusting 7 7.8
2020-Jan-25 11:50 192 1 gusting 9 8.3
2020-Jan-25 11:41 206 1 gusting 6 8.3
2020-Jan-25 11:32 193 1 gusting 6 8.3
2020-Jan-25 11:23 193 2 gusting 6 8.3
2020-Jan-25 11:14 190 1 gusting 6 8.3
2020-Jan-25 11:05 201 2 gusting 5 8.3
2020-Jan-25 10:56 211 1 gusting 5 8.3
2020-Jan-25 10:47 211 1 gusting 5 8.3
2020-Jan-25 10:38 202 1 gusting 4 8.3
2020-Jan-25 10:29 206 0 gusting 4 8.3
2020-Jan-25 10:20 200 1 gusting 5 8.3
2020-Jan-25 10:11 218 0 gusting 3 8.3
2020-Jan-25 10:02 200 1 gusting 5 8.3
2020-Jan-25 09:53 200 1 gusting 5 8.3
2020-Jan-25 09:44 193 1 gusting 7 8.3
2020-Jan-25 09:35 198 1 gusting 7 8.3
2020-Jan-25 09:26 216 1 gusting 5 8.9
2020-Jan-25 09:17 227 1 gusting 4 8.9
2020-Jan-25 09:08 198 0 gusting 5 8.9
2020-Jan-25 08:59 203 1 gusting 5 8.9
2020-Jan-25 08:50 186 1 gusting 4 8.9
2020-Jan-25 08:41 199 1 gusting 4 8.9
2020-Jan-25 08:32 206 0 gusting 3 8.9
2020-Jan-25 08:23 213 0 gusting 3 8.9
2020-Jan-25 08:14 196 0 gusting 2 8.9
2020-Jan-25 08:05 197 8.9
2020-Jan-25 07:56 179 0 gusting 3 8.9
2020-Jan-25 07:47 182 0 gusting 3 8.9
2020-Jan-25 07:38 192 0 gusting 2 8.9
2020-Jan-25 07:29 210 0 gusting 3 9.4
2020-Jan-25 07:20 155 9.4
2020-Jan-25 07:11 166 9.4
2020-Jan-25 07:02 215 0 gusting 3 9.4
2020-Jan-25 06:53 248 9.4
2020-Jan-25 06:44 171 9.4
2020-Jan-25 06:35 179 9.4
2020-Jan-25 06:26 172 9.4
2020-Jan-25 06:17 161 9.4
2020-Jan-25 06:08 161 9.4
2020-Jan-25 05:59 161 9.4
2020-Jan-25 05:50 161 9.4
2020-Jan-25 05:41 162 9.4
2020-Jan-25 05:32 156 0 gusting 4 9.4
2020-Jan-25 05:23 154 0 gusting 5 9.4
2020-Jan-25 05:14 175 1 gusting 6 9.4
2020-Jan-25 05:05 158 2 gusting 7 9.4
2020-Jan-25 04:56 163 1 gusting 6 9.4
2020-Jan-25 04:47 160 2 gusting 6 9.4
2020-Jan-25 04:38 162 2 gusting 8 9.4
2020-Jan-25 04:29 170 1 gusting 6 8.9
2020-Jan-25 04:20 162 8.9
2020-Jan-25 04:11 146 0 gusting 4 8.9
2020-Jan-25 04:02 172 8.9
2020-Jan-25 03:53 150 0 gusting 4 8.9
2020-Jan-25 03:44 118 8.9
2020-Jan-25 03:35 8.9
2020-Jan-25 03:26 124 8.9
2020-Jan-25 03:17 147 8.9
2020-Jan-25 03:08 176 8.9
2020-Jan-25 02:59 177 8.9
2020-Jan-25 02:50 191 8.9
2020-Jan-25 02:41 141 8.9
2020-Jan-25 02:32 141 8.9
2020-Jan-25 02:23 8.9
2020-Jan-25 02:14 8.9
2020-Jan-25 02:05 092 8.9
2020-Jan-25 01:56 134 0 gusting 3 8.9
2020-Jan-25 01:47 134 0 gusting 3 8.9
2020-Jan-25 01:38 130 0 gusting 4 9.4
2020-Jan-25 01:29 150 2 gusting 6 9.4
2020-Jan-25 01:20 150 0 gusting 4 9.4
2020-Jan-25 01:11 147 0 gusting 3 9.4
2020-Jan-25 01:02 116 0 gusting 4 9.4
2020-Jan-25 00:53 160 1 gusting 5 9.4
2020-Jan-25 00:44 159 1 gusting 6 9.4
2020-Jan-25 00:35 165 1 gusting 6 10.0
2020-Jan-25 00:26 148 1 gusting 6 10.0
2020-Jan-25 00:17 162 1 gusting 6 10.0
2020-Jan-25 00:08 150 2 gusting 6 10.0
2020-Jan-24 23:59 159 2 gusting 6 10.0
2020-Jan-24 23:50 151 2 gusting 6 10.0
2020-Jan-24 23:41 145 2 gusting 7 10.0
2020-Jan-24 23:32 158 1 gusting 6 10.0
2020-Jan-24 23:23 153 0 gusting 4 10.0
2020-Jan-24 23:14 165 0 gusting 4 10.0
2020-Jan-24 23:05 148 0 gusting 4 10.0
2020-Jan-24 22:56 152 1 gusting 6 10.0
2020-Jan-24 22:47 156 1 gusting 5 10.0
2020-Jan-24 22:38 156 2 gusting 6 10.6
2020-Jan-24 22:29 149 2 gusting 8 10.6
2020-Jan-24 22:20 139 3 gusting 9 10.0
2020-Jan-24 22:11 139 1 gusting 7 10.0
2020-Jan-24 22:02 149 2 gusting 8 10.0
2020-Jan-24 21:53 146 1 gusting 6 10.0
2020-Jan-24 21:44 127 1 gusting 7 10.0
2020-Jan-24 21:35 140 2 gusting 10 10.0
2020-Jan-24 21:26 153 2 gusting 9 10.0
2020-Jan-24 21:17 156 2 gusting 6 10.0
2020-Jan-24 21:08 141 2 gusting 7 10.0
2020-Jan-24 20:59 143 4 gusting 10 10.0
2020-Jan-24 20:50 143 4 gusting 7 10.0
2020-Jan-24 20:41 140 4 gusting 10 10.0
2020-Jan-24 20:32 151 4 gusting 9 10.0
2020-Jan-24 20:23 150 5 gusting 13 10.0
2020-Jan-24 20:14 135 3 gusting 10 10.0
2020-Jan-24 20:05 109 1 gusting 8 9.4
2020-Jan-24 19:56 126 2 gusting 11 9.4
2020-Jan-24 19:47 145 5 gusting 10 10.0
2020-Jan-24 19:38 155 3 gusting 6 10.0
2020-Jan-24 19:29 149 4 gusting 10 10.0
2020-Jan-24 19:20 144 3 gusting 12 10.0
2020-Jan-24 19:11 149 4 gusting 10 10.0
2020-Jan-24 19:02 145 5 gusting 12 10.0
2020-Jan-24 18:53 154 3 gusting 10 10.0
2020-Jan-24 18:44 159 4 gusting 11 9.4
2020-Jan-24 18:35 157 2 gusting 7 9.4
2020-Jan-24 18:26 132 1 gusting 7 8.9
2020-Jan-24 18:17 150 2 gusting 11 9.4
2020-Jan-24 18:08 148 3 gusting 11 9.4
2020-Jan-24 17:59 161 3 gusting 9 9.4
2020-Jan-24 17:50 161 3 gusting 9 9.4
2020-Jan-24 17:41 152 4 gusting 13 9.4
2020-Jan-24 17:32 151 5 gusting 13 9.4
2020-Jan-24 17:23 152 5 gusting 15 9.4
2020-Jan-24 17:14 138 4 gusting 12 9.4
2020-Jan-24 17:05 148 5 gusting 13 9.4
2020-Jan-24 16:56 145 4 gusting 10 9.4
2020-Jan-24 16:47 143 5 gusting 15 9.4
2020-Jan-24 16:38 157 6 gusting 13 9.4
2020-Jan-24 16:29 158 5 gusting 11 9.4
2020-Jan-24 16:20 161 5 gusting 15 9.4
2020-Jan-24 16:11 163 3 gusting 7 9.4
2020-Jan-24 16:02 158 4 gusting 7 9.4
2020-Jan-24 15:53 149 4 gusting 10 9.4
2020-Jan-24 15:44 160 3 gusting 9 9.4
2020-Jan-24 15:35 155 4 gusting 10 9.4
2020-Jan-24 15:26 158 4 gusting 10 9.4
2020-Jan-24 15:17 165 2 gusting 7 9.4
2020-Jan-24 15:08 161 2 gusting 8 9.4
2020-Jan-24 14:59 146 2 gusting 9 9.4
2020-Jan-24 14:50 160 3 gusting 9 9.4
2020-Jan-24 14:41 167 3 gusting 7 9.4
2020-Jan-24 14:32 156 4 gusting 10 9.4
2020-Jan-24 14:23 157 3 gusting 11 9.4
2020-Jan-24 14:14 152 4 gusting 11 9.4
2020-Jan-24 14:05 151 5 gusting 9 9.4
2020-Jan-24 13:56 153 3 gusting 8 9.4
2020-Jan-24 13:47 170 3 gusting 7 9.4
2020-Jan-24 13:38 157 4 gusting 9 9.4
2020-Jan-24 13:29 153 3 gusting 11 9.4
2020-Jan-24 13:20 150 2 gusting 8 9.4
2020-Jan-24 13:11 155 2 gusting 8 9.4
2020-Jan-24 13:02 164 3 gusting 10 9.4
2020-Jan-24 12:53 158 3 gusting 10 9.4
2020-Jan-24 12:44 166 3 gusting 9 9.4
2020-Jan-24 12:35 165 4 gusting 13 9.4
2020-Jan-24 12:26 157 3 gusting 11 9.4
2020-Jan-24 12:17 152 3 gusting 9 9.4
2020-Jan-24 12:08 161 3 gusting 10 9.4
2020-Jan-24 11:59 149 3 gusting 8 9.4
2020-Jan-24 11:50 157 2 gusting 9 9.4
2020-Jan-24 11:41 156 3 gusting 6 9.4
2020-Jan-24 11:32 164 4 gusting 10 9.4
2020-Jan-24 11:23 159 4 gusting 11 9.4
2020-Jan-24 11:14 157 5 gusting 15 10.0
2020-Jan-24 11:05 142 5 gusting 15 10.0
2020-Jan-24 10:56 172 3 gusting 9 10.0
2020-Jan-24 10:47 162 4 gusting 8 10.0
2020-Jan-24 10:38 168 3 gusting 7 10.0
2020-Jan-24 10:29 164 3 gusting 7 10.0
2020-Jan-24 10:20 163 2 gusting 8 10.0
2020-Jan-24 10:11 157 3 gusting 8 10.0
2020-Jan-24 10:02 152 3 gusting 8 10.0
2020-Jan-24 09:53 162 5 gusting 13 10.0
2020-Jan-24 09:44 154 4 gusting 10 10.0
2020-Jan-24 09:35 154 4 gusting 12 10.0
2020-Jan-24 09:26 165 4 gusting 10 10.0
2020-Jan-24 09:17 171 3 gusting 10 10.0
2020-Jan-24 09:08 167 3 gusting 6 10.0
2020-Jan-24 08:59 158 2 gusting 7 10.0
2020-Jan-24 08:50 149 3 gusting 8 10.0
2020-Jan-24 08:41 160 3 gusting 9 10.0
2020-Jan-24 08:32 156 2 gusting 8 10.0
2020-Jan-24 08:23 161 3 gusting 8 10.0
2020-Jan-24 08:14 163 4 gusting 9 10.0
2020-Jan-24 08:05 159 3 gusting 10 10.0
2020-Jan-24 07:56 162 4 gusting 8 10.0
2020-Jan-24 07:47 149 4 gusting 9 10.0
2020-Jan-24 07:38 164 2 gusting 8 10.0
2020-Jan-24 07:29 172 3 gusting 10 10.0
2020-Jan-24 07:20 161 3 gusting 8 10.0
2020-Jan-24 07:11 163 3 gusting 7 10.0
2020-Jan-24 07:02 156 3 gusting 6 10.0
2020-Jan-24 06:53 174 2 gusting 6 10.0
2020-Jan-24 06:44 173 3 gusting 7 10.0
2020-Jan-24 06:35 168 3 gusting 6 10.0
2020-Jan-24 06:26 172 2 gusting 7 10.0
2020-Jan-24 06:17 174 3 gusting 6 10.0
2020-Jan-24 06:08 164 2 gusting 6 10.0
2020-Jan-24 05:59 158 2 gusting 7 10.0
2020-Jan-24 05:50 172 2 gusting 6 10.6
2020-Jan-24 05:41 162 2 gusting 9 10.6
2020-Jan-24 05:32 173 2 gusting 6 10.6
2020-Jan-24 05:23 172 2 gusting 6 10.6
2020-Jan-24 05:14 176 2 gusting 7 10.6
2020-Jan-24 05:05 170 2 gusting 6 10.6
2020-Jan-24 04:56 169 3 gusting 7 10.6
2020-Jan-24 04:47 170 3 gusting 6 10.6
2020-Jan-24 04:38 161 3 gusting 7 10.6
2020-Jan-24 04:29 164 3 gusting 12 10.6
2020-Jan-24 04:20 179 3 gusting 8 10.6
2020-Jan-24 04:11 166 3 gusting 10 10.6
2020-Jan-24 04:02 162 3 gusting 9 10.6
2020-Jan-24 03:53 165 4 gusting 9 10.6
2020-Jan-24 03:44 178 3 gusting 7 10.6
2020-Jan-24 03:35 162 4 gusting 12 10.6
2020-Jan-24 03:26 157 3 gusting 12 10.6
2020-Jan-24 03:17 167 4 gusting 11 10.6
2020-Jan-24 03:08 148 5 gusting 12 10.6
2020-Jan-24 02:59 177 6 gusting 13 11.1
2020-Jan-24 02:50 172 5 gusting 11 11.1
2020-Jan-24 02:41 168 5 gusting 9 11.1
2020-Jan-24 02:32 158 5 gusting 14 11.1
2020-Jan-24 02:23 172 4 gusting 11 10.6
2020-Jan-24 02:14 176 4 gusting 9 10.6
2020-Jan-24 02:05 156 4 gusting 7 10.6
2020-Jan-24 01:56 168 4 gusting 10 11.1
2020-Jan-24 01:47 171 4 gusting 7 11.1
2020-Jan-24 01:38 176 4 gusting 7 11.1
2020-Jan-24 01:29 169 4 gusting 10 11.1
2020-Jan-24 01:20 169 4 gusting 9 11.1
2020-Jan-24 01:11 172 4 gusting 8 11.1
2020-Jan-24 01:02 174 3 gusting 8 11.1
2020-Jan-24 00:53 175 4 gusting 8 11.1
2020-Jan-24 00:44 174 4 gusting 10 11.1
2020-Jan-24 00:35 160 4 gusting 10 11.1
2020-Jan-24 00:26 172 3 gusting 11 11.1
2020-Jan-24 00:17 162 3 gusting 9 11.1
2020-Jan-24 00:08 157 4 gusting 11 11.1
2020-Jan-23 23:59 160 3 gusting 7 11.1
2020-Jan-23 23:50 169 4 gusting 8 11.1
2020-Jan-23 23:41 164 4 gusting 16 11.1
2020-Jan-23 23:32 182 4 gusting 9 11.1
2020-Jan-23 23:23 167 4 gusting 10 11.1
2020-Jan-23 23:14 182 4 gusting 8 11.1
2020-Jan-23 23:05 173 4 gusting 9 11.1
2020-Jan-23 22:56 165 5 gusting 13 11.1
2020-Jan-23 22:47 164 5 gusting 12 11.1
2020-Jan-23 22:38 164 5 gusting 12 11.1
2020-Jan-23 22:29 160 4 gusting 10 11.1
2020-Jan-23 22:20 173 5 gusting 13 11.1
2020-Jan-23 22:11 166 4 gusting 10 11.1
2020-Jan-23 22:02 157 5 gusting 13 11.1
2020-Jan-23 21:53 160 5 gusting 12 11.1
2020-Jan-23 21:44 155 6 gusting 17 11.1
2020-Jan-23 21:35 175 5 gusting 12 11.1
2020-Jan-23 21:26 169 5 gusting 17 11.1
2020-Jan-23 21:17 164 5 gusting 17 11.1
2020-Jan-23 21:08 165 5 gusting 16 11.1
2020-Jan-23 20:59 154 5 gusting 16 11.1
2020-Jan-23 20:50 163 5 gusting 11 11.1
2020-Jan-23 20:41 158 5 gusting 13 11.1
2020-Jan-23 20:32 152 6 gusting 16 11.1
2020-Jan-23 20:23 159 6 gusting 13 11.1
2020-Jan-23 20:14 163 6 gusting 14 11.1
2020-Jan-23 20:05 150 5 gusting 13 11.1
2020-Jan-23 19:56 163 6 gusting 13 11.1
2020-Jan-23 19:47 155 6 gusting 15 11.1
2020-Jan-23 19:38 158 5 gusting 14 11.1
2020-Jan-23 19:29 167 6 gusting 13 11.1
2020-Jan-23 19:20 158 6 gusting 13 11.1
2020-Jan-23 19:11 155 6 gusting 19 11.1
2020-Jan-23 19:02 165 6 gusting 16 11.1
2020-Jan-23 18:53 170 6 gusting 14 11.1
2020-Jan-23 18:44 171 5 gusting 12 11.1
2020-Jan-23 18:35 153 6 gusting 13 11.1
2020-Jan-23 18:26 168 6 gusting 13 11.1
2020-Jan-23 18:17 176 6 gusting 15 11.1
2020-Jan-23 18:08 162 6 gusting 14 11.1
2020-Jan-23 17:59 163 6 gusting 14 11.1
2020-Jan-23 17:50 168 6 gusting 14 11.1
2020-Jan-23 17:41 155 6 gusting 13 11.1
2020-Jan-23 17:32 163 6 gusting 14 11.1
2020-Jan-23 17:23 161 6 gusting 14 11.1
2020-Jan-23 17:14 158 6 gusting 17 11.1
2020-Jan-23 17:05 157 6 gusting 18 11.1
2020-Jan-23 16:56 157 7 gusting 18 11.1
2020-Jan-23 16:47 163 6 gusting 15 11.1
2020-Jan-23 16:38 173 6 gusting 12 11.1
2020-Jan-23 16:29 165 6 gusting 14 11.1
2020-Jan-23 16:20 160 6 gusting 18 11.1
2020-Jan-23 16:11 172 6 gusting 17 10.6
2020-Jan-23 16:02 161 5 gusting 11 10.6
2020-Jan-23 15:53 172 5 gusting 13 10.6
2020-Jan-23 15:44 164 5 gusting 10 10.6
2020-Jan-23 15:35 168 6 gusting 13 10.6
2020-Jan-23 15:26 166 5 gusting 13 10.6
2020-Jan-23 15:17 158 5 gusting 12 10.6
2020-Jan-23 15:08 153 5 gusting 12 10.6
2020-Jan-23 14:59 154 6 gusting 13 10.6
2020-Jan-23 14:50 169 5 gusting 12 10.6
2020-Jan-23 14:41 160 5 gusting 10 10.6
2020-Jan-23 14:32 149 6 gusting 15 10.6
2020-Jan-23 14:23 159 6 gusting 13 10.6
2020-Jan-23 14:14 157 5 gusting 15 10.6
2020-Jan-23 14:05 160 6 gusting 13 10.6
2020-Jan-23 13:56 168 5 gusting 11 10.6
2020-Jan-23 13:47 171 6 gusting 14 10.6
2020-Jan-23 13:38 162 5 gusting 14 10.6
2020-Jan-23 13:29 164 5 gusting 12 11.1
2020-Jan-23 13:20 176 5 gusting 14 11.1
2020-Jan-23 13:11 168 6 gusting 16 11.1
2020-Jan-23 13:02 185 6 gusting 18 11.1